| time (UTC) | temp F | wind direction | speed knots | gust knots | rain 1hr in | rain 24hr in | rain mn in | humidity % | barometer mb |
| 20260905195352 | 55 | 279 | 0.9 | 6.1 | 0.04 | 0.87 | 0.17 | 81 | 1015.1 |
| 20260905194845 | 55 | 269 | 2.6 | 6.1 | 0.04 | 1.26 | 0.17 | 81 | 1015.2 |
| 20260905194350 | 55 | 247 | 2.6 | 6.1 | 0.00 | 1.22 | 0.17 | 81 | 1015.1 |
| 20260905193845 | 55 | 277 | 2.6 | 5.2 | 0.04 | 1.22 | 0.17 | 81 | 1015.1 |
| 20260905193350 | 55 | 258 | 1.7 | 5.2 | 0.08 | 1.22 | 0.17 | 81 | 1015.1 |
| 20260905192828 | 55 | 235 | 2.6 | 4.3 | 0.16 | 1.22 | 0.17 | 81 | 1015.0 |
| 20260905192353 | 55 | 252 | 1.7 | 4.3 | 0.16 | 1.22 | 0.17 | 81 | 1015.0 |
| 20260905191846 | 56 | 269 | 0.9 | 5.2 | 0.16 | 1.22 | 0.17 | 81 | 1014.9 |
| 20260905191351 | 56 | 267 | 1.7 | 5.2 | 0.16 | 1.22 | 0.17 | 81 | 1014.8 |
| 20260905190844 | 56 | 287 | 0.9 | 4.3 | 0.16 | 1.22 | 0.17 | 81 | 1014.8 |
| 20260905190408 | 56 | 275 | 2.6 | 5.2 | 0.16 | 1.22 | 0.17 | 81 | 1014.7 |
| 20260905185851 | 56 | 252 | 2.6 | 5.2 | 0.16 | 1.22 | 0.17 | 80 | 1014.8 |
| 20260905185354 | 56 | 267 | 3.5 | 9.6 | 0.16 | 1.22 | 0.17 | 80 | 1015.0 |
| 20260905184850 | 56 | 275 | 4.3 | 12.2 | 0.16 | 1.22 | 0.17 | 80 | 1015.1 |
| 20260905184354 | 57 | 257 | 5.2 | 12.2 | 0.16 | 1.22 | 0.17 | 80 | 1015.2 |
| 20260905183847 | 57 | 244 | 5.2 | 12.2 | 0.08 | 1.14 | 0.15 | 80 | 1015.2 |
| 20260905183350 | 57 | 225 | 7.0 | 15.6 | 0.08 | 1.14 | 0.15 | 80 | 1015.2 |
| 20260905182843 | 57 | 250 | 7.0 | 15.6 | 0.04 | 1.06 | 0.13 | 81 | 1015.1 |
| 20260905182351 | 57 | 275 | 5.2 | 11.3 | 0.04 | 1.06 | 0.13 | 81 | 1015.1 |
| 20260905181828 | 57 | 276 | 1.7 | 3.5 | 0.08 | 1.06 | 0.13 | 81 | 1015.0 |
| 20260905181355 | 57 | 270 | 0.9 | 3.5 | 0.08 | 1.06 | 0.13 | 81 | 1014.7 |
| 20260905180831 | 57 | 270 | 0.0 | 0.9 | 0.08 | 1.06 | 0.13 | 81 | 1014.4 |
| 20260905180356 | 57 | 270 | 0.0 | 2.6 | 0.08 | 1.06 | 0.13 | 80 | 1014.5 |
| 20260905175841 | 57 | 270 | 0.0 | 5.2 | 0.08 | 1.06 | 0.13 | 80 | 1014.5 |
| 20260905175346 | 57 | 257 | 2.6 | 5.2 | 0.08 | 1.06 | 0.13 | 80 | 1014.5 |
| 20260905174839 | 57 | 259 | 1.7 | 7.0 | 0.08 | 1.06 | 0.13 | 80 | 1014.5 |
| 20260905174342 | 57 | 247 | 2.6 | 11.3 | 0.08 | 1.06 | 0.13 | 80 | 1014.5 |
| 20260905173855 | 57 | 295 | 4.3 | 11.3 | 0.08 | 1.06 | 0.13 | 80 | 1014.6 |
| 20260905173340 | 57 | 263 | 5.2 | 10.4 | 0.08 | 1.06 | 0.13 | 80 | 1014.6 |
| 20260905172833 | 58 | 245 | 4.3 | 14.8 | 0.04 | 1.02 | 0.13 | 80 | 1014.5 |
| 20260905172352 | 57 | 261 | 7.8 | 13.9 | 0.04 | 1.02 | 0.13 | 80 | 1014.5 |
| 20260905171845 | 57 | 288 | 1.7 | 5.2 | 0.00 | 0.98 | 0.12 | 80 | 1014.5 |
| 20260905171350 | 57 | 268 | 0.0 | 0.0 | 0.00 | 0.98 | 0.12 | 80 | 1014.1 |
| 20260905170903 | 58 | 268 | 0.0 | 0.0 | 0.08 | 0.98 | 0.12 | 80 | 1014.0 |
| 20260905170347 | 58 | 268 | 0.0 | 0.0 | 0.20 | 0.98 | 0.12 | 80 | 1013.9 |
| 20260905165833 | 58 | 268 | 0.0 | 0.0 | 0.24 | 0.98 | 0.12 | 80 | 1013.9 |
| 20260905165418 | 58 | 268 | 0.0 | 0.0 | 0.24 | 0.98 | 0.12 | 80 | 1013.9 |
| 20260905164831 | 58 | 268 | 0.0 | 0.9 | 0.28 | 0.98 | 0.12 | 80 | 1013.9 |
| 20260905163838 | 58 | 268 | 0.9 | 3.5 | 0.28 | 0.98 | 0.12 | 79 | 1014.0 |
| 20260905163342 | 58 | 234 | 0.0 | 0.9 | 0.28 | 0.98 | 0.12 | 79 | 1014.0 |
| 20260905162835 | 59 | 234 | 0.0 | 2.6 | 0.28 | 0.98 | 0.12 | 79 | 1013.9 |
| 20260905162342 | 59 | 232 | 0.9 | 7.8 | 0.28 | 0.98 | 0.12 | 78 | 1014.1 |
| 20260905161339 | 60 | 233 | 4.3 | 14.8 | 0.28 | 0.98 | 0.12 | 77 | 1014.4 |
| 20260905160835 | 61 | 292 | 7.0 | 13.9 | 0.20 | 0.91 | 0.10 | 77 | 1014.7 |
| 20260905155903 | 62 | 308 | 0.9 | 2.6 | 0.04 | 0.75 | 0.07 | 77 | 1013.7 |
| 20260905155347 | 62 | 307 | 0.0 | 0.0 | 0.04 | 0.75 | 0.07 | 77 | 1013.5 |
| 20260905154903 | 62 | 307 | 0.0 | 0.0 | 0.00 | 0.71 | 0.06 | 76 | 1013.4 |
| 20260905154347 | 62 | 307 | 0.0 | 0.0 | 0.00 | 0.71 | 0.06 | 76 | 1013.4 |
| 20260905153840 | 62 | 307 | 0.0 | 0.0 | 0.00 | 0.71 | 0.06 | 76 | 1013.3 |
| 20260905153341 | 62 | 307 | 0.0 | 2.6 | 0.00 | 0.71 | 0.06 | 76 | 1013.4 |
| 20260905152854 | 62 | 307 | 0.0 | 2.6 | 0.00 | 0.71 | 0.06 | 76 | 1013.4 |
| 20260905152358 | 62 | 307 | 0.0 | 1.7 | 0.00 | 0.71 | 0.06 | 75 | 1013.4 |
| 20260905151831 | 63 | 307 | 0.0 | 1.7 | 0.00 | 0.71 | 0.06 | 75 | 1013.3 |
| 20260905151342 | 63 | 307 | 0.0 | 1.7 | 0.04 | 0.71 | 0.06 | 74 | 1013.3 |
| 20260905150834 | 63 | 307 | 0.0 | 4.3 | 0.24 | 0.71 | 0.06 | 74 | 1013.3 |
| 20260905150356 | 63 | 308 | 0.9 | 5.2 | 0.28 | 0.71 | 0.06 | 73 | 1013.4 |
| 20260905145842 | 63 | 286 | 2.6 | 5.2 | 0.28 | 0.71 | 0.06 | 72 | 1013.3 |
| 20260905145343 | 63 | 298 | 2.6 | 4.3 | 0.28 | 0.71 | 0.06 | 72 | 1013.3 |
| 20260905144859 | 62 | 292 | 2.6 | 6.1 | 0.28 | 0.71 | 0.06 | 73 | 1013.3 |
| 20260905144401 | 62 | 304 | 2.6 | 8.7 | 0.28 | 0.71 | 0.06 | 74 | 1013.3 |
| 20260905143831 | 61 | 285 | 5.2 | 9.6 | 0.28 | 0.71 | 0.06 | 74 | 1013.4 |
| 20260905143412 | 61 | 296 | 3.5 | 9.6 | 0.28 | 0.71 | 0.06 | 76 | 1013.4 |
| 20260905142846 | 61 | 277 | 1.7 | 4.3 | 0.28 | 0.71 | 0.06 | 76 | 1013.4 |
| 20260905142353 | 60 | 304 | 1.7 | 6.1 | 0.28 | 0.71 | 0.06 | 75 | 1013.5 |
| 20260905141846 | 60 | 287 | 3.5 | 7.0 | 0.28 | 0.71 | 0.06 | 74 | 1013.7 |
| 20260905141350 | 61 | 275 | 4.3 | 11.3 | 0.24 | 0.67 | 0.06 | 73 | 1013.7 |
| 20260905140842 | 63 | 273 | 7.8 | 13.9 | 0.04 | 0.47 | 0.02 | 71 | 1013.9 |
| 20260905140350 | 64 | 275 | 6.1 | 13.9 | 0.00 | 0.43 | 0.01 | 68 | 1013.6 |
| 20260905135834 | 65 | 277 | 7.8 | 19.1 | 0.00 | 0.43 | 0.01 | 67 | 1013.4 |
| 20260905135357 | 67 | 261 | 10.4 | 19.1 | 0.00 | 0.43 | 0.01 | 64 | 1013.3 |
| 20260905134831 | 68 | 273 | 6.1 | 15.6 | 0.00 | 0.43 | 0.01 | 64 | 1013.0 |
| 20260905134338 | 68 | 274 | 6.1 | 15.6 | 0.00 | 0.43 | 0.01 | 62 | 1012.9 |
| 20260905133834 | 69 | 286 | 7.8 | 15.6 | 0.00 | 0.43 | 0.01 | 62 | 1012.9 |
| 20260905133340 | 69 | 313 | 5.2 | 15.6 | 0.00 | 0.43 | 0.01 | 63 | 1012.8 |
| 20260905132854 | 68 | 219 | 6.1 | 15.6 | 0.00 | 0.43 | 0.01 | 62 | 1012.8 |
| 20260905132342 | 68 | 265 | 2.6 | 13.0 | 0.00 | 0.43 | 0.01 | 63 | 1012.6 |
| 20260905131839 | 67 | 250 | 7.0 | 13.0 | 0.00 | 0.43 | 0.01 | 63 | 1012.8 |
| 20260905131342 | 68 | 274 | 7.0 | 13.0 | 0.00 | 0.43 | 0.01 | 60 | 1012.8 |
| 20260905130834 | 69 | 255 | 4.3 | 14.8 | 0.00 | 0.43 | 0.01 | 59 | 1012.7 |
| 20260905130339 | 69 | 271 | 7.8 | 16.5 | 0.00 | 0.43 | 0.01 | 59 | 1012.9 |
| 20260905125834 | 68 | 267 | 6.1 | 13.0 | 0.00 | 0.43 | 0.01 | 62 | 1012.9 |
| 20260905125341 | 68 | 267 | 7.0 | 15.6 | 0.00 | 0.43 | 0.01 | 61 | 1012.9 |
| 20260905124833 | 68 | 269 | 9.6 | 15.6 | 0.00 | 0.43 | 0.01 | 61 | 1012.9 |
| 20260905124352 | 68 | 272 | 5.2 | 18.2 | 0.00 | 0.43 | 0.01 | 62 | 1012.9 |
| 20260905123847 | 68 | 259 | 7.0 | 18.2 | 0.00 | 0.43 | 0.01 | 60 | 1013.0 |
| 20260905123352 | 68 | 242 | 5.2 | 16.5 | 0.00 | 0.43 | 0.01 | 62 | 1013.0 |
| 20260905122904 | 68 | 275 | 7.8 | 16.5 | 0.00 | 0.43 | 0.01 | 61 | 1013.1 |
| 20260905122348 | 68 | 281 | 10.4 | 16.5 | 0.00 | 0.43 | 0.01 | 59 | 1013.1 |
| 20260905121840 | 68 | 279 | 9.6 | 16.5 | 0.00 | 0.43 | 0.01 | 61 | 1013.1 |
| 20260905121339 | 68 | 285 | 7.8 | 13.9 | 0.00 | 0.43 | 0.01 | 62 | 1013.1 |
| 20260905120852 | 68 | 271 | 6.1 | 16.5 | 0.00 | 0.43 | 0.01 | 62 | 1013.2 |
| 20260905120335 | 68 | 288 | 7.0 | 16.5 | 0.00 | 0.43 | 0.01 | 64 | 1013.2 |
| 20260905115843 | 68 | 274 | 7.0 | 18.2 | 0.00 | 0.43 | 0.01 | 64 | 1013.2 |
| 20260905115347 | 67 | 298 | 11.3 | 18.2 | 0.00 | 0.43 | 0.01 | 63 | 1013.1 |
| 20260905114839 | 68 | 264 | 8.7 | 18.2 | 0.00 | 0.43 | 0.01 | 63 | 1013.2 |
| 20260905114345 | 68 | 263 | 7.0 | 18.2 | 0.00 | 0.43 | 0.01 | 65 | 1013.1 |
| 20260905113837 | 68 | 256 | 7.0 | 16.5 | 0.00 | 0.43 | 0.01 | 62 | 1013.1 |
| 20260905113341 | 68 | 271 | 6.1 | 14.8 | 0.00 | 0.43 | 0.01 | 64 | 1013.0 |
| 20260905112833 | 68 | 281 | 4.3 | 15.6 | 0.00 | 0.43 | 0.01 | 63 | 1013.0 |
| 20260905112358 | 68 | 263 | 6.1 | 15.6 | 0.00 | 0.43 | 0.01 | 65 | 1012.9 |
| 20260905111831 | 67 | 269 | 7.8 | 15.6 | 0.00 | 0.43 | 0.01 | 64 | 1013.0 |
| 20260905111339 | 67 | 257 | 7.8 | 14.8 | 0.00 | 0.43 | 0.01 | 63 | 1013.0 |
| 20260905110834 | 67 | 263 | 8.7 | 14.8 | 0.00 | 0.43 | 0.01 | 65 | 1013.1 |
| 20260905110359 | 67 | 250 | 7.0 | 15.6 | 0.00 | 0.43 | 0.01 | 65 | 1013.0 |
| 20260905105842 | 67 | 275 | 7.8 | 15.6 | 0.00 | 0.43 | 0.01 | 64 | 1012.8 |
| 20260905105351 | 67 | 331 | 8.7 | 13.9 | 0.00 | 0.43 | 0.01 | 65 | 1012.9 |
| 20260905104904 | 67 | 287 | 7.8 | 15.6 | 0.00 | 0.43 | 0.01 | 65 | 1012.8 |
| 20260905104409 | 66 | 279 | 10.4 | 20.0 | 0.00 | 0.43 | 0.01 | 65 | 1013.0 |
| 20260905103844 | 66 | 261 | 11.3 | 20.0 | 0.00 | 0.43 | 0.01 | 64 | 1012.9 |
| 20260905103410 | 67 | 284 | 9.6 | 20.0 | 0.00 | 0.43 | 0.01 | 65 | 1012.9 |
| 20260905102901 | 66 | 284 | 9.6 | 15.6 | 0.00 | 0.43 | 0.01 | 66 | 1012.8 |
| 20260905102345 | 65 | 293 | 7.0 | 15.6 | 0.00 | 0.43 | 0.01 | 67 | 1012.8 |
| 20260905101839 | 66 | 267 | 9.6 | 17.4 | 0.00 | 0.43 | 0.01 | 66 | 1012.7 |
| 20260905101344 | 66 | 215 | 6.1 | 17.4 | 0.00 | 0.43 | 0.01 | 67 | 1012.8 |
| 20260905100839 | 66 | 193 | 7.0 | 17.4 | 0.00 | 0.43 | 0.01 | 67 | 1012.6 |
| 20260905100346 | 66 | 226 | 8.7 | 20.9 | 0.00 | 0.43 | 0.01 | 67 | 1012.6 |
| 20260905095831 | 65 | 251 | 10.4 | 20.9 | 0.00 | 0.43 | 0.01 | 67 | 1012.6 |
| 20260905095416 | 65 | 226 | 7.8 | 16.5 | 0.00 | 0.43 | 0.01 | 67 | 1012.5 |
| 20260905094831 | 65 | 270 | 6.1 | 15.6 | 0.00 | 0.43 | 0.01 | 68 | 1012.6 |
| 20260905094340 | 65 | 304 | 7.8 | 16.5 | 0.00 | 0.43 | 0.01 | 68 | 1012.5 |
| 20260905093835 | 65 | 269 | 9.6 | 14.8 | 0.00 | 0.43 | 0.01 | 69 | 1012.3 |
| 20260905093340 | 66 | 243 | 7.0 | 12.2 | 0.00 | 0.43 | 0.01 | 69 | 1012.3 |
| 20260905092833 | 66 | 245 | 6.1 | 15.6 | 0.00 | 0.43 | 0.01 | 69 | 1012.4 |
| 20260905092358 | 65 | 281 | 7.8 | 15.6 | 0.00 | 0.43 | 0.01 | 69 | 1012.3 |
| 20260905091834 | 64 | 275 | 8.7 | 18.2 | 0.00 | 0.43 | 0.01 | 70 | 1012.3 |
| 20260905091340 | 64 | 224 | 10.4 | 18.2 | 0.00 | 0.43 | 0.01 | 71 | 1012.3 |
| 20260905090833 | 64 | 277 | 8.7 | 15.6 | 0.00 | 0.43 | 0.01 | 71 | 1012.4 |
| 20260905090341 | 64 | 267 | 8.7 | 15.6 | 0.00 | 0.43 | 0.01 | 71 | 1012.3 |
| 20260905085905 | 64 | 273 | 5.2 | 12.2 | 0.00 | 0.43 | 0.01 | 72 | 1012.2 |
| 20260905085350 | 64 | 269 | 6.1 | 12.2 | 0.00 | 0.43 | 0.01 | 71 | 1012.2 |
| 20260905084905 | 64 | 295 | 7.0 | 14.8 | 0.00 | 0.43 | 0.01 | 71 | 1012.1 |
| 20260905084351 | 64 | 228 | 7.8 | 14.8 | 0.00 | 0.43 | 0.01 | 70 | 1012.1 |
| 20260905083845 | 64 | 261 | 7.8 | 14.8 | 0.00 | 0.43 | 0.01 | 71 | 1012.1 |
| 20260905083355 | 64 | 281 | 7.8 | 20.0 | 0.00 | 0.43 | 0.01 | 70 | 1012.0 |
| 20260905082848 | 64 | 269 | 10.4 | 20.0 | 0.00 | 0.43 | 0.01 | 70 | 1012.1 |
| 20260905082415 | 65 | 281 | 9.6 | 16.5 | 0.00 | 0.43 | 0.01 | 71 | 1012.0 |
| 20260905081828 | 65 | 256 | 7.8 | 16.5 | 0.00 | 0.43 | 0.01 | 71 | 1011.9 |
| 20260905081417 | 64 | 273 | 7.8 | 15.6 | 0.00 | 0.43 | 0.01 | 72 | 1011.9 |
| 20260905080848 | 64 | 288 | 7.8 | 13.9 | 0.00 | 0.43 | 0.01 | 73 | 1011.9 |
| 20260905080352 | 64 | 289 | 5.2 | 13.9 | 0.00 | 0.43 | 0.01 | 73 | 1012.0 |
| 20260905075838 | 63 | 252 | 5.2 | 22.6 | 0.00 | 0.43 | 0.01 | 73 | 1012.0 |
| 20260905075344 | 63 | 258 | 9.6 | 22.6 | 0.00 | 0.43 | 0.01 | 73 | 1012.0 |
| 20260905074859 | 63 | 275 | 7.8 | 15.6 | 0.00 | 0.43 | 0.01 | 73 | 1011.9 |
| 20260905074405 | 63 | 257 | 7.8 | 17.4 | 0.00 | 0.43 | 0.01 | 73 | 1011.8 |
| 20260905073840 | 63 | 255 | 9.6 | 17.4 | 0.00 | 0.43 | 0.01 | 73 | 1011.8 |
| 20260905073346 | 63 | 253 | 4.3 | 15.6 | 0.00 | 0.43 | 0.01 | 74 | 1011.7 |
| 20260905072841 | 63 | 287 | 7.8 | 17.4 | 0.00 | 0.43 | 0.01 | 74 | 1011.7 |
| 20260905072346 | 63 | 315 | 4.3 | 16.5 | 0.00 | 0.43 | 0.01 | 75 | 1011.6 |
| 20260905071839 | 63 | 265 | 7.0 | 16.5 | 0.00 | 0.43 | 0.01 | 74 | 1011.5 |
| 20260905071344 | 62 | 240 | 6.1 | 14.8 | 0.00 | 0.43 | 0.01 | 75 | 1011.4 |
| 20260905070839 | 62 | 235 | 7.0 | 14.8 | 0.00 | 0.43 | 0.01 | 75 | 1011.4 |
| 20260905070342 | 62 | 265 | 7.0 | 16.5 | 0.00 | 0.43 | 0.01 | 75 | 1011.5 |
| 20260905065831 | 62 | 254 | 8.7 | 18.2 | 0.00 | 0.43 | 0.01 | 75 | 1011.5 |
| 20260905065339 | 62 | 225 | 7.8 | 14.8 | 0.00 | 0.43 | 0.01 | 75 | 1011.4 |
| 20260905064833 | 62 | 282 | 7.8 | 12.2 | 0.00 | 0.43 | 0.01 | 75 | 1011.3 |
| 20260905064338 | 62 | 265 | 7.8 | 13.9 | 0.00 | 0.43 | 0.01 | 75 | 1011.2 |
| 20260905063852 | 62 | 227 | 7.8 | 13.9 | 0.00 | 0.43 | 0.01 | 75 | 1011.2 |
| 20260905063341 | 62 | 240 | 6.1 | 13.0 | 0.00 | 0.43 | 0.01 | 75 | 1011.1 |
| 20260905062837 | 62 | 279 | 6.1 | 16.5 | 0.00 | 0.43 | 0.01 | 76 | 1011.0 |
| 20260905062347 | 62 | 257 | 7.8 | 16.5 | 0.00 | 0.43 | 0.01 | 76 | 1011.0 |
| 20260905061357 | 61 | 248 | 4.3 | 15.6 | 0.00 | 0.43 | 0.01 | 76 | 1010.9 |
| 20260905060830 | 61 | 269 | 6.1 | 15.6 | 0.00 | 0.43 | 0.01 | 76 | 1010.9 |
| 20260905060415 | 61 | 283 | 5.2 | 15.6 | 0.00 | 0.43 | 0.01 | 76 | 1010.8 |
| 20260905055842 | 61 | 288 | 5.2 | 15.6 | 0.00 | 0.43 | 0.01 | 76 | 1010.8 |
| 20260905055351 | 61 | 284 | 7.8 | 15.6 | 0.00 | 0.43 | 0.01 | 76 | 1010.7 |
| 20260905054904 | 61 | 238 | 7.0 | 13.0 | 0.00 | 0.43 | 0.01 | 76 | 1010.7 |
| 20260905054349 | 61 | 263 | 5.2 | 12.2 | 0.00 | 0.43 | 0.01 | 77 | 1010.6 |
| 20260905053844 | 61 | 259 | 5.2 | 12.2 | 0.00 | 0.43 | 0.01 | 77 | 1010.4 |
| 20260905053349 | 61 | 256 | 5.2 | 13.0 | 0.00 | 0.43 | 0.01 | 77 | 1010.6 |
| 20260905052842 | 61 | 272 | 5.2 | 13.0 | 0.00 | 0.43 | 0.01 | 77 | 1010.6 |
| 20260905052346 | 61 | 287 | 4.3 | 11.3 | 0.00 | 0.43 | 0.01 | 77 | 1010.3 |
| 20260905051840 | 61 | 294 | 3.5 | 10.4 | 0.00 | 0.43 | 0.01 | 77 | 1010.4 |
| 20260905051348 | 61 | 250 | 5.2 | 10.4 | 0.00 | 0.43 | 0.01 | 77 | 1010.2 |
| 20260905050844 | 61 | 293 | 2.6 | 9.6 | 0.00 | 0.43 | 0.01 | 77 | 1010.2 |
| 20260905050334 | 61 | 279 | 5.2 | 9.6 | 0.00 | 0.43 | 0.01 | 77 | 1010.2 |
| 20260905045843 | 61 | 269 | 4.3 | 12.2 | 0.00 | 0.43 | 0.01 | 77 | 1010.1 |
| 20260905045412 | 61 | 269 | 7.0 | 12.2 | 0.00 | 0.43 | 0.01 | 77 | 1010.1 |
| 20260905044846 | 61 | 286 | 5.2 | 10.4 | 0.00 | 0.43 | 0.01 | 77 | 1010.1 |
| 20260905044412 | 61 | 283 | 6.1 | 10.4 | 0.00 | 0.43 | 0.01 | 77 | 1010.0 |
| 20260905043828 | 61 | 265 | 5.2 | 10.4 | 0.00 | 0.43 | 0.01 | 77 | 1009.9 |
| 20260905043417 | 61 | 276 | 5.2 | 11.3 | 0.00 | 0.43 | 0.01 | 77 | 1009.8 |
| 20260905042829 | 61 | 251 | 5.2 | 11.3 | 0.00 | 0.43 | 0.01 | 77 | 1009.8 |
| 20260905042338 | 61 | 252 | 4.3 | 10.4 | 0.00 | 0.43 | 0.01 | 77 | 1009.7 |
| 20260905041833 | 61 | 276 | 6.1 | 10.4 | 0.00 | 0.43 | 0.01 | 77 | 1009.6 |
| 20260905041358 | 61 | 248 | 4.3 | 8.7 | 0.00 | 0.43 | 0.01 | 77 | 1009.7 |
| 20260905040832 | 61 | 250 | 2.6 | 8.7 | 0.00 | 0.43 | 0.01 | 77 | 1009.7 |
| 20260905040357 | 61 | 273 | 5.2 | 11.3 | 0.00 | 0.43 | 0.01 | 77 | 1009.5 |
| 20260905035841 | 61 | 288 | 5.2 | 12.2 | 0.00 | 0.43 | 0.01 | 77 | 1009.4 |
| 20260905035347 | 61 | 275 | 7.0 | 12.2 | 0.00 | 0.43 | 0.01 | 77 | 1009.5 |
| 20260905034840 | 61 | 263 | 5.2 | 10.4 | 0.00 | 0.43 | 0.01 | 77 | 1009.4 |
| 20260905034345 | 61 | 277 | 5.2 | 11.3 | 0.00 | 0.43 | 0.01 | 77 | 1009.1 |
| 20260905033838 | 61 | 277 | 5.2 | 11.3 | 0.00 | 0.43 | 0.01 | 77 | 1009.0 |
| 20260905033404 | 61 | 275 | 5.2 | 12.2 | 0.00 | 0.43 | 0.01 | 77 | 1009.0 |
| 20260905032855 | 62 | 261 | 7.0 | 12.2 | 0.00 | 0.43 | 0.01 | 77 | 1009.1 |
| 20260905032403 | 62 | 262 | 5.2 | 8.7 | 0.00 | 0.43 | 0.01 | 77 | 1009.0 |
| 20260905031841 | 62 | 259 | 5.2 | 12.2 | 0.00 | 0.43 | 0.01 | 77 | 1009.0 |
| 20260905031348 | 62 | 263 | 7.0 | 12.2 | 0.00 | 0.43 | 0.01 | 77 | 1008.9 |
| 20260905030842 | 62 | 284 | 5.2 | 14.8 | 0.00 | 0.43 | 0.01 | 77 | 1008.8 |
| 20260905030348 | 62 | 284 | 7.0 | 15.6 | 0.00 | 0.43 | 0.01 | 77 | 1008.6 |
| 20260905025833 | 62 | 251 | 7.8 | 15.6 | 0.00 | 0.43 | 0.01 | 77 | 1008.5 |
| 20260905025341 | 62 | 264 | 5.2 | 15.6 | 0.00 | 0.43 | 0.01 | 77 | 1008.3 |
| 20260905024834 | 62 | 277 | 7.8 | 15.6 | 0.00 | 0.43 | 0.01 | 77 | 1008.3 |
| 20260905024339 | 62 | 263 | 7.0 | 13.9 | 0.00 | 0.43 | 0.01 | 77 | 1008.3 |
| 20260905023835 | 62 | 250 | 4.3 | 12.2 | 0.00 | 0.43 | 0.01 | 78 | 1008.2 |
| 20260905023340 | 62 | 266 | 5.2 | 11.3 | 0.00 | 0.43 | 0.01 | 78 | 1008.2 |
| 20260905022833 | 62 | 267 | 6.1 | 13.0 | 0.00 | 0.43 | 0.01 | 78 | 1008.0 |
| 20260905022338 | 62 | 229 | 6.1 | 13.9 | 0.00 | 0.43 | 0.01 | 78 | 1008.1 |
| 20260905021834 | 62 | 272 | 5.2 | 13.9 | 0.00 | 0.43 | 0.01 | 78 | 1008.1 |
| 20260905021403 | 62 | 256 | 2.6 | 11.3 | 0.00 | 0.43 | 0.01 | 78 | 1008.0 |
| 20260905020841 | 62 | 246 | 5.2 | 13.0 | 0.00 | 0.43 | 0.01 | 78 | 1007.9 |
| 20260905020346 | 62 | 253 | 6.1 | 13.0 | 0.00 | 0.43 | 0.01 | 78 | 1007.9 |
| 20260905015833 | 62 | 260 | 6.1 | 13.0 | 0.00 | 0.43 | 0.01 | 78 | 1008.0 |
| 20260905015340 | 62 | 279 | 2.6 | 13.9 | 0.00 | 0.43 | 0.01 | 78 | 1008.0 |
| 20260905014833 | 62 | 267 | 6.1 | 13.9 | 0.00 | 0.43 | 0.01 | 78 | 1008.1 |
| 20260905014402 | 62 | 254 | 4.3 | 10.4 | 0.00 | 0.43 | 0.01 | 78 | 1008.0 |
| 20260905013837 | 62 | 273 | 3.5 | 10.4 | 0.00 | 0.43 | 0.01 | 78 | 1007.8 |
| 20260905013407 | 62 | 254 | 4.3 | 8.7 | 0.00 | 0.43 | 0.01 | 78 | 1007.8 |
| 20260905012841 | 62 | 217 | 4.3 | 11.3 | 0.00 | 0.43 | 0.01 | 78 | 1007.8 |
| 20260905012350 | 62 | 267 | 4.3 | 12.2 | 0.00 | 0.43 | 0.01 | 78 | 1007.6 |
| 20260905011843 | 62 | 227 | 6.1 | 10.4 | 0.00 | 0.43 | 0.01 | 78 | 1007.6 |
| 20260905011348 | 62 | 254 | 4.3 | 10.4 | 0.00 | 0.43 | 0.01 | 78 | 1007.7 |
| 20260905010841 | 62 | 267 | 4.3 | 11.3 | 0.00 | 0.43 | 0.01 | 78 | 1007.6 |
| 20260905010345 | 62 | 273 | 4.3 | 11.3 | 0.00 | 0.43 | 0.01 | 78 | 1007.3 |
| 20260905005910 | 62 | 269 | 3.5 | 12.2 | 0.00 | 0.43 | 0.01 | 78 | 1007.4 |
| 20260905005354 | 62 | 273 | 6.1 | 11.3 | 0.00 | 0.43 | 0.01 | 78 | 1007.5 |
| 20260905004831 | 62 | 277 | 5.2 | 14.8 | 0.00 | 0.43 | 0.01 | 78 | 1007.6 |
| 20260905004357 | 62 | 269 | 6.1 | 14.8 | 0.00 | 0.43 | 0.01 | 78 | 1007.7 |
| 20260905003831 | 62 | 252 | 5.2 | 14.8 | 0.00 | 0.43 | 0.01 | 78 | 1007.7 |
| 20260905003417 | 62 | 243 | 6.1 | 14.8 | 0.00 | 0.43 | 0.01 | 78 | 1007.8 |
| 20260905002909 | 62 | 244 | 7.8 | 14.8 | 0.00 | 0.43 | 0.01 | 78 | 1007.7 |
| 20260905002354 | 62 | 213 | 6.1 | 13.9 | 0.00 | 0.43 | 0.01 | 78 | 1007.4 |
| 20260905001847 | 62 | 227 | 7.0 | 13.9 | 0.00 | 0.43 | 0.01 | 78 | 1007.0 |
| 20260905001353 | 62 | 277 | 7.0 | 13.0 | 0.00 | 0.43 | 0.01 | 78 | 1006.9 |
| 20260905000846 | 62 | 257 | 5.2 | 11.3 | 0.00 | 0.43 | 0.01 | 78 | 1006.7 |
| 20260905000410 | 62 | 252 | 5.2 | 13.0 | 0.00 | 0.43 | 0.01 | 78 | 1006.9 |
| 20260904235834 | 62 | 277 | 5.2 | 13.0 | 0.00 | 0.43 | 0.01 | 77 | 1006.9 |
| 20260904235403 | 62 | 269 | 5.2 | 12.2 | 0.00 | 0.43 | 0.01 | 77 | 1006.8 |
| 20260904234834 | 63 | 269 | 5.2 | 13.9 | 0.00 | 0.43 | 0.01 | 77 | 1006.8 |
| 20260904234400 | 63 | 240 | 5.2 | 12.2 | 0.00 | 0.43 | 0.01 | 77 | 1006.5 |
| 20260904233832 | 63 | 241 | 6.1 | 12.2 | 0.00 | 0.43 | 0.01 | 77 | 1006.5 |
| 20260904233358 | 63 | 269 | 6.1 | 12.2 | 0.00 | 0.43 | 0.01 | 77 | 1006.5 |
| 20260904232833 | 63 | 259 | 6.1 | 12.2 | 0.04 | 0.43 | 0.01 | 77 | 1006.6 |
| 20260904232342 | 63 | 232 | 5.2 | 13.0 | 0.04 | 0.43 | 0.01 | 77 | 1006.6 |
| 20260904231836 | 63 | 252 | 7.0 | 13.0 | 0.04 | 0.43 | 0.01 | 78 | 1006.6 |
| 20260904231406 | 63 | 292 | 5.2 | 10.4 | 0.04 | 0.43 | 0.01 | 78 | 1006.6 |
| 20260904230840 | 64 | 244 | 4.3 | 12.2 | 0.04 | 0.43 | 0.01 | 78 | 1006.2 |
| 20260904230403 | 64 | 248 | 5.2 | 10.4 | 0.04 | 0.43 | 0.01 | 78 | 1006.2 |
| 20260904225832 | 64 | 287 | 5.2 | 12.2 | 0.04 | 0.43 | 0.01 | 79 | 1006.1 |
| 20260904225339 | 64 | 248 | 4.3 | 12.2 | 0.04 | 0.43 | 0.01 | 79 | 1006.2 |
| 20260904224834 | 64 | 271 | 4.3 | 12.2 | 0.04 | 0.43 | 0.01 | 79 | 1005.7 |
| 20260904224402 | 64 | 286 | 5.2 | 10.4 | 0.04 | 0.43 | 0.01 | 79 | 1005.8 |
| 20260904223834 | 65 | 240 | 4.3 | 10.4 | 0.04 | 0.43 | 0.01 | 80 | 1005.6 |
| 20260904223400 | 65 | 259 | 3.5 | 10.4 | 0.04 | 0.43 | 0.01 | 80 | 1005.8 |
| 20260904222832 | 65 | 211 | 5.2 | 10.4 | 0.00 | 0.39 | 0.00 | 80 | 1005.8 |
| 20260904222358 | 65 | 220 | 4.3 | 11.3 | 0.00 | 0.39 | 0.00 | 80 | 1005.7 |
| 20260904221833 | 65 | 268 | 4.3 | 11.3 | 0.00 | 0.39 | 0.00 | 80 | 1005.5 |
| 20260904221343 | 65 | 240 | 0.9 | 7.8 | 0.00 | 0.39 | 0.00 | 80 | 1005.4 |
| 20260904220859 | 65 | 257 | 2.6 | 6.1 | 0.00 | 0.39 | 0.00 | 80 | 1005.1 |
| 20260904220347 | 65 | 214 | 1.7 | 7.0 | 0.00 | 0.39 | 0.00 | 81 | 1004.6 |
| 20260904215831 | 65 | 238 | 1.7 | 7.0 | 0.00 | 0.39 | 0.00 | 80 | 1004.9 |
| 20260904215357 | 64 | 273 | 2.6 | 7.0 | 0.00 | 0.39 | 0.00 | 80 | 1005.3 |
| 20260904214850 | 64 | 280 | 1.7 | 6.1 | 0.00 | 0.39 | 0.08 | 80 | 1005.3 |
| 20260904214338 | 64 | 268 | 0.9 | 5.2 | 0.00 | 0.39 | 0.08 | 80 | 1005.4 |
| 20260904213835 | 64 | 243 | 0.9 | 5.2 | 0.00 | 0.39 | 0.08 | 80 | 1005.0 |
| 20260904213341 | 64 | 261 | 0.0 | 7.0 | 0.00 | 0.39 | 0.08 | 80 | 1005.2 |
| 20260904212842 | 64 | 248 | 1.7 | 7.0 | 0.00 | 0.39 | 0.08 | 80 | 1005.2 |
| 20260904212350 | 64 | 288 | 0.9 | 4.3 | 0.00 | 0.39 | 0.08 | 80 | 1005.0 |
| 20260904211843 | 64 | 288 | 1.7 | 5.2 | 0.00 | 0.39 | 0.08 | 80 | 1005.3 |
| 20260904211353 | 64 | 263 | 2.6 | 7.8 | 0.00 | 0.39 | 0.08 | 80 | 1005.4 |
| 20260904210848 | 64 | 248 | 1.7 | 7.8 | 0.00 | 0.39 | 0.08 | 80 | 1005.4 |
| 20260904210353 | 64 | 256 | 1.7 | 4.3 | 0.00 | 0.39 | 0.08 | 80 | 1005.6 |
| 20260904205842 | 64 | 227 | 1.7 | 3.5 | 0.00 | 0.39 | 0.08 | 80 | 1005.4 |
| 20260904205351 | 64 | 245 | 0.0 | 2.6 | 0.00 | 0.39 | 0.08 | 80 | 1005.0 |
| 20260904204846 | 64 | 245 | 0.9 | 2.6 | 0.00 | 0.39 | 0.08 | 79 | 1004.9 |
| 20260904204351 | 64 | 260 | 0.0 | 1.7 | 0.00 | 0.39 | 0.08 | 79 | 1005.0 |
| 20260904203844 | 65 | 260 | 0.0 | 4.3 | 0.08 | 0.39 | 0.08 | 79 | 1005.0 |
| 20260904203350 | 65 | 260 | 0.9 | 4.3 | 0.08 | 0.39 | 0.08 | 79 | 1005.2 |
| 20260904202843 | 65 | 277 | 1.7 | 6.1 | 0.12 | 0.39 | 0.08 | 79 | 1005.1 |
| 20260904202353 | 65 | 263 | 1.7 | 7.8 | 0.12 | 0.39 | 0.08 | 79 | 1005.0 |
| 20260904201906 | 65 | 282 | 1.7 | 8.7 | 0.16 | 0.39 | 0.08 | 79 | 1005.3 |
| 20260904201350 | 65 | 292 | 4.3 | 10.4 | 0.28 | 0.39 | 0.08 | 79 | 1005.7 |
| 20260904200845 | 66 | 270 | 4.3 | 10.4 | 0.28 | 0.39 | 0.08 | 79 | 1005.9 |
| 20260904200350 | 66 | 250 | 5.2 | 9.6 | 0.31 | 0.39 | 0.08 | 78 | 1005.9 |
| 20260904195835 | 66 | 268 | 4.3 | 9.6 | 0.35 | 0.39 | 0.08 | 78 | 1005.4 |